Flag for Burundi Weather past 2 weeks in Gitega, Burundi

Now
66 °F

Passing clouds.


Feels Like: 66 °F
Forecast: 56 / 79 °F
Wind: 3 mph from West

Location: Kigali Airport

Current Time: Jan 26, 2015 at 11:24:12 PM

Latest Report: Jan 26, 2015 at 11:00 PM


Visibility: N/A

Pressure: 30.15 "Hg

Humidity: 94%

Dew point: 64 °F

Location of GitegaLocation

Historic Weather in Gitega — Graph

°F

Gitega temperature yesterday

Maximum temperature yesterday: 75 °F (at 5:00 PM)
Minimum temperature yesterday: 59 °F (at 3:00 AM)
Average temperature yesterday: 67 °F

Past Weeks' High & Low Weather Summary

 TemperatureHumidityPressure
High88 °F (Jan 14, 1:00 PM)100% (Jan 11, 11:00 PM)30.24 "Hg (Jan 11, 11:00 PM)
Low59 °F (Jan 23, 3:30 AM)29% (Jan 17, 2:30 PM)29.98 "Hg (Jan 17, 3:00 PM)
Average71 °F77%30.11 "Hg
* Reported Jan 11 10:00 PM — Jan 26 10:30 PM, Gitega, Weather by CustomWeather, © 2014

Note: Actual official high and low records may vary slightly from our data, if they occured in-between our weather recording intervals... More about our weather records

Advertising

Gitega weather history for previous 24 hours

 ConditionsComfort  
Time TempWeatherWind HumidityBarometerVisibility
10:30 PM
Jan 26
66 °FPassing clouds.3 mph94%30.15 "HgN/A
10:00 PM66 °FPassing clouds.3 mph94%30.12 "HgN/A
9:30 PM68 °FPassing clouds.No wind88%30.12 "HgN/A
9:00 PM68 °FPassing clouds.No wind88%30.12 "HgN/A
8:30 PM68 °FPassing clouds.No wind88%30.12 "HgN/A
8:00 PM70 °FPassing clouds.No wind83%30.12 "HgN/A
7:30 PM70 °FMild.3 mph88%30.09 "HgN/A
7:00 PM72 °FMild.5 mph83%30.09 "HgN/A
6:30 PM72 °FMild.8 mph78%30.09 "HgN/A
6:00 PM73 °FLight rain. Scattered clouds.12 mph78%30.09 "HgN/A
5:00 PM81 °FScattered clouds.7 mph51%30.04 "HgN/A
4:30 PM82 °FScattered clouds.6 mph48%30.04 "HgN/A
4:00 PM82 °FScattered clouds.8 mph48%30.04 "HgN/A
3:00 PM79 °FScattered clouds.3 mph54%30.07 "HgN/A
2:30 PM81 °FPartly sunny.6 mph51%30.09 "HgN/A
2:00 PM82 °FScattered clouds.6 mph55%30.09 "HgN/A
1:30 PM79 °FScattered clouds.N/A61%30.12 "HgN/A
1:00 PM79 °FScattered clouds.N/A61%30.12 "HgN/A
12:30 PM77 °FScattered clouds.6 mph61%30.15 "HgN/A
12:00 PM75 °FScattered clouds.8 mph69%30.15 "HgN/A
11:30 AM75 °FPassing clouds.5 mph69%30.18 "Hg5 mi
9:00 AM66 °FFog.No wind100%30.18 "Hg2 mi
8:30 AM63 °FFog.No wind100%30.18 "Hg0 mi
7:30 AM61 °FFog.No wind100%30.15 "Hg0 mi
7:00 AM59 °FFog.No wind100%30.15 "Hg0 mi
6:30 AM59 °FFog.No wind100%30.15 "Hg0 mi
6:00 AM59 °FFog.No wind100%30.12 "Hg0 mi
5:30 AM59 °FFog.No wind100%30.12 "Hg1 mi
5:00 AM61 °FPassing clouds.No wind100%30.12 "Hg5 mi
4:30 AM61 °FPassing clouds.No wind100%30.12 "Hg5 mi
4:00 AM61 °FPassing clouds.3 mph100%30.09 "Hg5 mi
3:30 AM61 °FPassing clouds.3 mph100%30.09 "Hg5 mi
3:00 AM61 °FPassing clouds.No wind100%30.09 "Hg5 mi
2:30 AM61 °FPassing clouds.3 mph100%30.09 "Hg5 mi
1:30 AM61 °FPassing clouds.3 mph100%30.09 "HgN/A
1:00 AM63 °FPassing clouds.3 mph100%30.12 "HgN/A
12:30 AM63 °FPassing clouds.3 mph100%30.12 "HgN/A
11:30 PM
Jan 25
63 °FPassing clouds.3 mph100%30.15 "HgN/A
11:00 PM63 °FPassing clouds.No wind100%30.15 "HgN/A
Weather by CustomWeather, © 2014

See weather overviewHow to use our weather pages